Weather History for Plattsmouth, NE

Change the Weather History Date:

Thursday, January 9, 2014

  Actual Average (KOFF) Record (KOFF)
Temperature  
Mean Temperature 16 °F -  
Max Temperature 25 °F 31 °F 53 °F (2002)
Min Temperature 7 °F 14 °F -5 °F (1999)
Degree Days  
Heating Degree Days 50    
Moisture  
Dew Point 13 °F    
Average Humidity 82    
Maximum Humidity 93    
Minimum Humidity 74    
Precipitation  
Precipitation 0.00 in - - ()
Sea Level Pressure  
Sea Level Pressure 30.15 in    
Wind  
Wind Speed 7 mph (SE)    
Max Wind Speed 15 mph    
Max Gust Speed 20 mph    
Visibility 9 miles    
Events      
Averages and records for this station are not official NWS values.
T = Trace of Precipitation, MM = Missing Value Source: NWS Daily Summary

Daily Weather History Graph

Daily Weather History Graph

Search for Another Location

Airport:

Trip Planner

Search our weather history database for the weather conditions in past years. The results will help you decide how hot, cold, wet, or windy it might be!

Date:

Astronomy

Jan. 09, 2014 Rise Set
Actual Time 7:48 AM CST 5:13 PM CST
Civil Twilight 7:17 AM CST 5:44 PM CST
Nautical Twilight 6:43 AM CST 6:18 PM CST
Astronomical Twilight 6:10 AM CST 6:51 PM CST
Moon 12:42 PM CST (1/9) 1:55 AM CST (1/9)
Length of Visible Light 10h 27m
Length of Day
9h 25m
Waxing Gibbous, 66% of the Moon is Illuminated
Jan 9
Waxing Gibbous
Jan 15
Full
Jan 23
Last Quarter
Jan 30
New
Feb 6
First Quarter

Hourly Weather History & Observations

Time (CST) Temp. Windchill Dew Point Humidity Pressure Visibility Wind Dir Wind Speed Gust Speed Precip Events Conditions
12:15 AM 11.8 °F 3.9 °F 5.4 °F 75% 30.35 in 10.0 mi East 4.6 mph - N/A   Overcast
12:35 AM 12.0 °F 4.1 °F 5.5 °F 75% 30.34 in 10.0 mi East 4.6 mph - N/A   Overcast
12:55 AM 11.5 °F 3.5 °F 5.2 °F 76% 30.34 in 10.0 mi East 4.6 mph - N/A   Overcast
1:15 AM 11.1 °F 1.7 °F 5.0 °F 76% 30.33 in 10.0 mi East 5.8 mph - N/A   Overcast
1:35 AM 10.9 °F 1.4 °F 5.2 °F 78% 30.33 in 10.0 mi East 5.8 mph - N/A   Overcast
1:55 AM 11.1 °F 1.7 °F 5.4 °F 78% 30.32 in 10.0 mi East 5.8 mph - N/A   Overcast
2:15 AM 9.5 °F -0.3 °F 4.5 °F 80% 30.32 in 10.0 mi East 5.8 mph - N/A   Overcast
2:35 AM 9.3 °F -0.5 °F 4.1 °F 79% 30.32 in 10.0 mi ESE 5.8 mph - N/A   Overcast
2:55 AM 8.2 °F -1.8 °F 3.2 °F 80% 30.32 in 10.0 mi East 5.8 mph - N/A   Scattered Clouds
3:15 AM 7.5 °F -1.1 °F 2.8 °F 81% 30.31 in 10.0 mi East 4.6 mph - N/A   Clear
3:35 AM 7.3 °F -2.8 °F 2.8 °F 82% 30.30 in 10.0 mi ESE 5.8 mph - N/A   Clear
3:55 AM 7.5 °F -2.6 °F 3.2 °F 82% 30.29 in 10.0 mi ESE 5.8 mph - N/A   Scattered Clouds
4:15 AM 8.6 °F -1.3 °F 4.1 °F 82% 30.29 in 10.0 mi ESE 5.8 mph - N/A   Mostly Cloudy
4:35 AM 9.0 °F -2.2 °F 4.1 °F 81% 30.28 in 10.0 mi ESE 6.9 mph - N/A   Scattered Clouds
4:55 AM 9.1 °F -1.9 °F 4.1 °F 80% 30.28 in 10.0 mi ESE 6.9 mph - N/A   Scattered Clouds
5:15 AM 9.9 °F 0.2 °F 5.0 °F 81% 30.27 in 10.0 mi ESE 5.8 mph - N/A   Mostly Cloudy
5:35 AM 11.3 °F 1.9 °F 6.1 °F 80% 30.26 in 10.0 mi SE 5.8 mph - N/A   Overcast
5:55 AM 11.7 °F 1.1 °F 6.4 °F 80% 30.26 in 10.0 mi SE 6.9 mph - N/A   Overcast
6:15 AM 12.4 °F 0.9 °F 7.2 °F 80% 30.25 in 10.0 mi SE 8.1 mph - N/A   Overcast
6:35 AM 12.9 °F 2.6 °F 7.7 °F 80% 30.25 in 10.0 mi SE 6.9 mph - N/A   Overcast
6:55 AM 13.1 °F 5.4 °F 7.9 °F 80% 30.24 in 10.0 mi SE 4.6 mph - N/A   Overcast
7:15 AM 13.1 °F 4.0 °F 7.7 °F 79% 30.24 in 10.0 mi SE 5.8 mph - N/A   Overcast
7:35 AM 11.8 °F 1.3 °F 6.8 °F 80% 30.22 in 10.0 mi SE 6.9 mph - N/A   Mostly Cloudy
7:55 AM 10.4 °F -0.4 °F 6.3 °F 83% 30.21 in 10.0 mi SE 6.9 mph - N/A   Clear
8:15 AM 10.8 °F 0.0 °F 6.6 °F 83% 30.21 in 10.0 mi ESE 6.9 mph - N/A   Clear
8:35 AM 11.3 °F 0.7 °F 6.8 °F 82% 30.21 in 10.0 mi SE 6.9 mph - N/A   Clear
8:55 AM 12.6 °F 1.1 °F 7.3 °F 80% 30.21 in 10.0 mi SE 8.1 mph - N/A   Clear
9:15 AM 13.5 °F 2.2 °F 7.7 °F 78% 30.21 in 10.0 mi SE 8.1 mph - N/A   Clear
9:35 AM 14.0 °F 2.9 °F 7.9 °F 77% 30.21 in 10.0 mi SE 8.1 mph - N/A   Clear
9:55 AM 15.4 °F 3.8 °F 9.1 °F 76% 30.21 in 10.0 mi SE 9.2 mph - N/A   Clear
10:15 AM 15.6 °F 4.9 °F 9.3 °F 76% 30.21 in 10.0 mi SSE 8.1 mph - N/A   Clear
10:35 AM 15.8 °F 3.4 °F 9.5 °F 76% 30.20 in 10.0 mi SE 10.4 mph - N/A   Scattered Clouds
10:55 AM 16.2 °F 5.5 °F 10.2 °F 77% 30.19 in 10.0 mi SSE 8.1 mph - N/A   Mostly Cloudy
11:15 AM 16.9 °F 7.4 °F 11.3 °F 79% 30.18 in 10.0 mi SSE 6.9 mph - N/A   Overcast
11:35 AM 17.8 °F 10.9 °F 11.8 °F 78% 30.17 in 10.0 mi SSE 4.6 mph - N/A   Overcast
11:55 AM 18.5 °F 8.4 °F 12.6 °F 78% 30.15 in 10.0 mi SE 8.1 mph - N/A   Overcast
12:15 PM 19.2 °F 10.2 °F 13.1 °F 77% 30.13 in 10.0 mi SSE 6.9 mph - N/A   Overcast
12:35 PM 20.3 °F 11.5 °F 14.0 °F 77% 30.12 in 10.0 mi South 6.9 mph - N/A   Overcast
12:55 PM 20.8 °F 11.2 °F 14.0 °F 75% 30.11 in 10.0 mi South 8.1 mph - N/A   Overcast
1:15 PM 21.7 °F 12.3 °F 15.1 °F 76% 30.10 in 10.0 mi SSE 8.1 mph - N/A   Overcast
1:35 PM 22.3 °F 13.0 °F 15.4 °F 75% 30.09 in 10.0 mi SSE 8.1 mph - N/A   Overcast
1:55 PM 23.0 °F 15.8 °F 15.8 °F 74% 30.08 in 10.0 mi SSE 5.8 mph - N/A   Overcast
2:35 PM 24.3 °F 16.3 °F 17.2 °F 75% 30.06 in 10.0 mi SE 6.9 mph - N/A   Overcast
2:55 PM 24.3 °F 16.3 °F 17.6 °F 76% 30.06 in 10.0 mi SSE 6.9 mph - N/A   Overcast
3:15 PM 24.4 °F 17.5 °F 18.1 °F 77% 30.06 in 10.0 mi SE 5.8 mph - N/A   Overcast
3:35 PM 24.1 °F 14.4 °F 18.5 °F 79% 30.05 in 10.0 mi SE 9.2 mph - N/A   Overcast
3:55 PM 24.4 °F 13.5 °F 19.0 °F 80% 30.05 in 7.0 mi SE 11.5 mph - N/A   Overcast
4:15 PM 23.9 °F 14.2 °F 19.2 °F 82% 30.04 in 7.0 mi SE 9.2 mph - N/A   Overcast
5:15 PM 23.7 °F 12.6 °F 19.4 °F 84% 30.03 in 7.0 mi SSE 11.5 mph 16.1 mph N/A   Overcast
5:35 PM 23.7 °F 14.0 °F 19.9 °F 85% 30.03 in 7.0 mi SSE 9.2 mph - N/A   Overcast
5:55 PM 23.9 °F 13.5 °F 20.1 °F 85% 30.02 in 7.0 mi SE 10.4 mph - N/A   Overcast
6:15 PM 23.9 °F 13.5 °F 20.3 °F 86% 30.02 in 7.0 mi SSE 10.4 mph - N/A   Overcast
6:35 PM 23.9 °F 14.2 °F 20.3 °F 86% 30.02 in 7.0 mi SE 9.2 mph - N/A   Overcast
6:55 PM 23.5 °F 13.7 °F 20.1 °F 87% 30.02 in 7.0 mi SE 9.2 mph - N/A   Overcast
7:15 PM 23.7 °F 14.0 °F 20.3 °F 87% 30.02 in 7.0 mi SSE 9.2 mph - N/A   Overcast
7:35 PM 23.9 °F 14.2 °F 20.5 °F 87% 30.03 in 7.0 mi SSE 9.2 mph - N/A   Overcast
7:55 PM 23.9 °F 16.8 °F 21.0 °F 89% 30.02 in 5.0 mi SSE 5.8 mph - N/A   Overcast
8:15 PM 23.9 °F 15.8 °F 21.2 °F 89% 30.01 in 5.0 mi SSE 6.9 mph - N/A   Overcast
8:35 PM 24.3 °F 15.4 °F 21.6 °F 89% 30.00 in 5.0 mi SE 8.1 mph - N/A   Overcast
8:55 PM 23.9 °F 15.8 °F 21.6 °F 91% 30.00 in 5.0 mi SE 6.9 mph - N/A   Overcast
9:15 PM 24.3 °F 15.4 °F 21.9 °F 91% 29.99 in 5.0 mi SE 8.1 mph - N/A   Overcast
9:35 PM 24.4 °F 14.2 °F 22.1 °F 91% 29.99 in 5.0 mi SSE 10.4 mph - N/A   Overcast
9:55 PM 24.4 °F 14.9 °F 22.1 °F 91% 29.97 in 5.0 mi SE 9.2 mph - N/A   Overcast
10:15 PM 24.4 °F 13.0 °F 22.5 °F 92% 29.96 in 4.0 mi SSE 12.7 mph 16.1 mph N/A   Overcast
10:35 PM 24.6 °F 13.8 °F 22.8 °F 93% 29.96 in 3.0 mi SE 11.5 mph 16.1 mph N/A   Overcast
10:55 PM 24.8 °F 12.4 °F 23.0 °F 93% 29.95 in 4.0 mi SSE 15.0 mph 19.6 mph N/A   Overcast
11:15 PM 24.8 °F 14.0 °F 23.0 °F 93% 29.95 in 5.0 mi SSE 11.5 mph - N/A   Overcast
11:35 PM 24.8 °F 14.0 °F 22.6 °F 91% 29.94 in 5.0 mi SE 11.5 mph - N/A   Overcast
11:55 PM 25.3 °F 15.3 °F 23.2 °F 91% 29.93 in 5.0 mi SE 10.4 mph - N/A   Overcast